contact:dominique.lefevre@mio.osupytheas.fr, maurice.libes@osupytheas.fr
Project:EMSO Ligure-ouest http://www.emso-fr.org/EMSO-France
Sensor Aquadopp, line 13 Serial AQD14315 
DOI : "https://doi.org/10.17882/74513; https://doi.org/10.17882/83244" 
Title:EMSO Ligure Ouest : Data ligne ALBATROSS capteur AQUADOPP - deploiement 2021
Id,Date,Profondeur,Latitude,Longitude,X_East,Y_North,Z_Up,Amplitude_X,Amplitude_Y,Amplitude_Z,Batterie,SoundSpeed,Heading,Pitch,Roll,Pressure,Temperature,Speed,Direction
, , m, degrees North, degrees East, m.s-1, m.s-1,m.s-1, 1, 1, 1, Volt, m.s-1, degree, degree, degree, dbar, degree_C, m.s-1, degree
07,2023-04-29T23:30:00,1500.0,42.79,6.0312,-0.046,0.047,0.003,46.0,47.0,47.0,12.1,1504.1,215.4,-0.1,1.0,1474.874,13.13,0.065,315.6
07,2023-04-30T00:00:00,1500.0,42.79,6.0312,-0.043,0.034,0.013,47.0,47.0,45.0,12.1,1504.1,216.3,0.1,1.3,1474.909,13.12,0.054,308.3
07,2023-04-30T00:30:00,1500.0,42.79,6.0312,-0.056,0.041,0.004,43.0,45.0,47.0,12.1,1504.1,217.5,0.5,1.1,1474.875,13.12,0.069,306.2
07,2023-04-30T01:00:00,1500.0,42.79,6.0312,-0.052,0.036,0.002,46.0,46.0,45.0,12.1,1504.1,214.6,-0.2,1.2,1474.901,13.12,0.063,304.7
07,2023-04-30T01:30:00,1500.0,42.79,6.0312,-0.05,0.039,0.002,45.0,46.0,45.0,12.1,1504.1,216.8,0.2,1.1,1474.948,13.12,0.063,308.0
07,2023-04-30T02:00:00,1500.0,42.79,6.0312,-0.058,0.036,0.001,48.0,48.0,46.0,12.1,1504.1,216.7,0.2,1.2,1474.94,13.13,0.068,301.8
07,2023-04-30T02:30:00,1500.0,42.79,6.0312,-0.069,0.029,-0.002,46.0,46.0,47.0,12.1,1504.1,219.4,0.1,1.3,1474.955,13.13,0.074,292.8
07,2023-04-30T03:00:00,1500.0,42.79,6.0312,-0.06,0.034,-0.008,49.0,46.0,45.0,12.1,1504.1,216.5,-0.1,1.0,1474.916,13.13,0.068,299.5
07,2023-04-30T03:30:00,1500.0,42.79,6.0312,-0.067,0.032,-0.014,45.0,51.0,48.0,12.1,1504.1,215.4,-0.2,1.0,1474.943,13.13,0.074,295.5
07,2023-04-30T04:00:00,1500.0,42.79,6.0312,-0.074,0.03,0.013,46.0,46.0,48.0,12.1,1504.1,216.2,0.2,1.1,1474.939,13.13,0.079,292.1
07,2023-04-30T04:30:00,1500.0,42.79,6.0312,-0.062,0.046,-0.008,47.0,48.0,47.0,12.1,1504.1,217.4,-0.1,1.1,1474.957,13.13,0.077,306.6
07,2023-04-30T05:00:00,1500.0,42.79,6.0312,-0.065,0.031,-0.005,47.0,48.0,50.0,12.1,1504.1,216.0,0.2,1.1,1474.976,13.13,0.072,295.5
07,2023-04-30T05:30:00,1500.0,42.79,6.0312,-0.056,0.036,0.01,47.0,48.0,46.0,12.1,1504.1,214.6,0.1,1.4,1474.92,13.13,0.066,302.7
07,2023-04-30T06:00:00,1500.0,42.79,6.0312,-0.052,0.031,0.009,47.0,47.0,46.0,12.1,1504.1,212.7,0.1,1.3,1474.932,13.13,0.06,300.8
07,2023-04-30T06:30:00,1500.0,42.79,6.0312,-0.054,0.033,-0.009,45.0,48.0,49.0,12.1,1504.1,210.8,-0.2,1.3,1474.93,13.12,0.063,301.4
07,2023-04-30T07:00:00,1500.0,42.79,6.0312,-0.057,0.037,-0.012,47.0,48.0,47.0,12.1,1504.1,210.2,-0.5,1.3,1474.914,13.13,0.067,303.0
07,2023-04-30T07:30:00,1500.0,42.79,6.0312,-0.048,0.033,0.0,47.0,51.0,50.0,12.1,1504.1,209.4,0.4,0.9,1474.872,13.13,0.058,304.5
07,2023-04-30T08:00:00,1500.0,42.79,6.0312,-0.037,0.023,-0.004,49.0,48.0,48.0,12.1,1504.1,211.1,-0.1,1.1,1474.896,13.13,0.043,301.9
07,2023-04-30T08:30:00,1500.0,42.79,6.0312,-0.048,0.025,-0.003,50.0,48.0,47.0,12.1,1504.1,208.1,0.1,1.1,1474.854,13.13,0.054,297.5
07,2023-04-30T09:00:00,1500.0,42.79,6.0312,-0.062,0.02,-0.002,47.0,47.0,49.0,12.1,1504.1,204.8,-0.2,1.1,1474.857,13.13,0.065,287.9
07,2023-04-30T09:30:00,1500.0,42.79,6.0312,-0.043,0.031,0.0,49.0,50.0,48.0,12.1,1504.1,205.9,0.1,1.3,1474.871,13.13,0.053,305.8
07,2023-04-30T10:00:00,1500.0,42.79,6.0312,-0.059,0.026,0.001,48.0,49.0,51.0,12.1,1504.1,203.7,0.0,1.3,1474.846,13.13,0.064,293.8
07,2023-04-30T10:30:00,1500.0,42.79,6.0312,-0.055,0.021,-0.001,47.0,49.0,48.0,12.1,1504.1,202.7,0.2,1.3,1474.811,13.13,0.058,290.9
07,2023-04-30T11:00:00,1500.0,42.79,6.0312,-0.055,0.019,0.013,49.0,50.0,48.0,12.1,1504.1,202.1,0.9,1.3,1474.806,13.13,0.058,289.1
07,2023-04-30T11:30:00,1500.0,42.79,6.0312,-0.054,0.031,0.002,47.0,49.0,48.0,12.1,1504.1,201.7,-0.4,1.2,1474.78,13.13,0.062,299.9
07,2023-04-30T12:00:00,1500.0,42.79,6.0312,-0.054,0.021,0.022,48.0,48.0,48.0,12.1,1504.1,202.8,-0.3,1.1,1474.841,13.13,0.057,291.2
07,2023-04-30T12:30:00,1500.0,42.79,6.0312,-0.052,0.028,0.0,48.0,49.0,48.0,12.1,1504.1,203.1,0.1,1.1,1474.831,13.13,0.059,298.3
07,2023-04-30T13:00:00,1500.0,42.79,6.0312,-0.077,0.029,0.006,47.0,49.0,50.0,12.1,1504.1,202.2,-0.1,1.1,1474.841,13.13,0.082,290.6
07,2023-04-30T13:30:00,1500.0,42.79,6.0312,-0.056,0.032,0.014,49.0,47.0,48.0,12.1,1504.1,202.0,0.2,0.9,1474.833,13.13,0.064,299.7
07,2023-04-30T14:00:00,1500.0,42.79,6.0312,-0.061,0.018,0.004,46.0,47.0,49.0,12.1,1504.1,199.8,-0.5,1.3,1474.853,13.13,0.063,286.4
07,2023-04-30T14:30:00,1500.0,42.79,6.0312,-0.062,0.029,0.016,47.0,52.0,48.0,12.1,1504.1,203.3,0.4,1.1,1474.851,13.13,0.068,295.1
07,2023-04-30T15:00:00,1500.0,42.79,6.0312,-0.065,0.025,-0.001,49.0,47.0,47.0,12.1,1504.1,202.0,0.3,1.3,1474.91,13.13,0.069,291.0
07,2023-04-30T15:30:00,1500.0,42.79,6.0312,-0.047,0.028,0.002,49.0,49.0,49.0,12.1,1504.1,206.0,-0.3,1.6,1474.927,13.13,0.054,300.8
07,2023-04-30T16:00:00,1500.0,42.79,6.0312,-0.061,0.023,0.012,48.0,49.0,49.0,12.1,1504.1,205.9,-0.5,1.4,1474.931,13.12,0.065,290.7
07,2023-04-30T16:30:00,1500.0,42.79,6.0312,-0.056,0.029,0.011,47.0,50.0,46.0,12.1,1504.1,209.2,-0.2,1.2,1474.892,13.12,0.063,297.4
07,2023-04-30T17:00:00,1500.0,42.79,6.0312,-0.05,0.024,0.005,48.0,47.0,46.0,12.1,1504.1,213.3,-0.2,1.5,1474.93,13.12,0.055,295.6
07,2023-04-30T17:30:00,1500.0,42.79,6.0312,-0.038,0.04,0.0,49.0,48.0,46.0,12.1,1504.1,214.2,-0.4,1.5,1474.898,13.12,0.055,316.5
07,2023-04-30T18:00:00,1500.0,42.79,6.0312,-0.035,0.034,-0.015,47.0,48.0,48.0,12.1,1504.0,218.1,-0.3,1.3,1474.923,13.11,0.048,314.2
07,2023-04-30T18:30:00,1500.0,42.79,6.0312,-0.056,0.034,0.004,48.0,49.0,47.0,12.1,1504.0,215.8,-0.4,1.3,1474.905,13.11,0.065,301.3
07,2023-04-30T19:00:00,1500.0,42.79,6.0312,-0.058,0.023,0.009,48.0,46.0,46.0,12.1,1504.0,213.5,0.0,1.2,1474.886,13.11,0.062,291.6
07,2023-04-30T19:30:00,1500.0,42.79,6.0312,-0.048,0.019,-0.001,46.0,48.0,48.0,12.1,1504.1,211.9,-0.1,1.6,1474.878,13.12,0.051,291.6
07,2023-04-30T20:00:00,1500.0,42.79,6.0312,-0.037,0.017,0.005,51.0,47.0,49.0,12.1,1504.1,211.1,-0.2,1.3,1474.891,13.12,0.04,294.7
07,2023-04-30T20:30:00,1500.0,42.79,6.0312,-0.054,0.009,-0.01,48.0,48.0,49.0,12.1,1504.1,211.0,-0.1,1.2,1474.891,13.12,0.054,279.5
07,2023-04-30T21:00:00,1500.0,42.79,6.0312,-0.053,0.018,-0.006,45.0,50.0,49.0,12.1,1504.1,210.9,0.0,1.3,1474.849,13.13,0.055,288.8
07,2023-04-30T21:30:00,1500.0,42.79,6.0312,-0.047,0.011,-0.003,47.0,52.0,48.0,12.1,1504.1,211.8,0.0,1.2,1474.867,13.13,0.048,283.2
07,2023-04-30T22:00:00,1500.0,42.79,6.0312,-0.05,0.007,0.014,48.0,47.0,52.0,12.1,1504.1,211.8,-0.5,1.6,1474.894,13.13,0.05,278.0
07,2023-04-30T22:30:00,1500.0,42.79,6.0312,-0.05,0.011,0.0,47.0,51.0,46.0,12.1,1504.1,207.7,-0.4,1.3,1474.83,13.13,0.051,282.4
07,2023-04-30T23:00:00,1500.0,42.79,6.0312,-0.053,0.005,-0.011,46.0,48.0,49.0,12.1,1504.1,207.7,0.1,1.2,1474.854,13.13,0.053,275.4
